Location: Chennevi�res
(48.7970°N, 2.5405°E)
Time: 23:21:32
(UTC+00:00)

Daily predictions for brighter satellites

Satellite Brightness Start Highest point End
(mag) Time Altitude Azimuth Time Altitude Azimuth Time Altitude Azimuth
CZ-4B R/B 3.8 18:01:58 10° S 18:07:24 65° WSW 18:12:59 10° NNW
Nadezhda 3 Rocket 4.3 18:01:53 10° N 18:07:44 43° ENE 18:13:34 10° SE
Feng Yun 1-1 Rocket 4.2 18:02:33 10° SSE 18:07:53 70° ENE 18:13:18 10° NNW
Cosmos 773 Rocket 4.1 18:04:40 10° NNW 18:09:53 59° ENE 18:15:06 10° SE
In-Cosmos 22 4.0 18:07:02 10° N 18:12:20 71° ENE 18:17:37 10° SSE
CZ-4 R/B 1.4 18:09:40 10° SSE 18:13:24 54° ENE 18:17:12 10° N
KORONAS-FOTON 4.3 18:10:14 10° N 18:13:47 37° ENE 18:17:19 10° SE
Meteor 1-21 4.4 18:09:09 10° NNW 18:14:50 79° W 18:20:25 10° S
Okean 2 3.5 18:13:18 10° NNW 18:17:25 81° W 18:21:29 10° S
SL-08 RB Rocket 3.6 18:15:09 10° SSE 18:19:35 69° ENE 18:24:03 10° N
BREEZE-M DEB (TANK) 4.1 18:08:37 10° WSW 18:19:47 69° SSE 18:23:12 10° ENE
SKYMED 2 3.8 18:15:36 10° N 18:19:58 76° WNW 18:24:17 10° SSW
Cosmos 1975 Rocket 3.9 18:16:07 10° N 18:20:06 31° ENE 18:24:05 10° SE
Landsat 5 3.7 18:17:13 10° N 18:21:07 69° WNW 18:25:09 10° SSW
SL-27 R/B 4.4 18:22:22 10° NNE 18:23:52 12° NE 18:25:14 10° ENE
Okean-O 2.9 18:24:04 10° SE 18:28:20 49° ENE 18:32:37 10° N
CENTAUR R/B 3.8 18:26:35 10° SE 18:29:54 15° ESE 18:33:31 10° ENE
USA 215 3.4 18:24:22 10° ESE 18:30:51 67° NNE 18:37:22 10° NW
CSL-04 Rocket 4.0 18:26:32 10° SE 18:31:37 45° ENE 18:36:49 10° N
Cosmos 2074 Rocket 4.0 18:27:10 10° S 18:33:26 84° E 18:39:46 10° N
Cosmos 1378 Rocket 4.3 18:31:00 10° NNW 18:35:21 57° W 18:39:42 10° S
Cosmos 1908 Rocket 3.6 18:35:56 10° S 18:40:25 85° E 18:44:55 10° N
Lacrosse 4 Rocket 4.2 18:39:07 10° WNW 18:41:03 13° NNW 18:43:00 10° N
HJ-1C 3.3 18:39:04 10° SSE 18:42:21 86° W 18:45:37 10° NNW
IRAS Rocket 4.5 18:37:21 10° NNE 18:43:00 79° WNW 18:48:37 10° SSW
Resurs 01 Rocket 3.5 18:43:13 12° ENE 18:44:12 13° ENE 18:46:09 10° NNE
Ariane Rocket 4.4 18:42:21 15° E 18:44:46 20° ENE 18:48:26 10° NNE
OBJECT-B 1.7 18:43:19 18° ESE 18:44:55 27° ENE 18:47:41 10° N
Cosmos 1184 Rocket 2.9 18:42:26 10° N 18:45:34 47° ENE 18:48:29 11° SSE
Helios 1A Rocket 4.4 18:44:58 17° E 18:46:26 20° ENE 18:49:25 10° NNE
Cosmos 1346 Rocket 2.7 18:44:37 10° N 18:48:40 72° ENE 18:52:40 10° SSE
ARGOS 4.1 18:44:00 10° S 18:49:13 51° W 18:54:28 10° NNW
Cosmos 2341 Rocket 4.4 18:44:33 10° SSE 18:50:25 41° E 18:56:20 10° NNE
YAOGAN 1 3.2 18:49:39 10° S 18:53:54 58° W 18:58:12 10° NNW
USA 305 3.4 18:50:07 10° WNW 18:54:15 50° NNE 18:56:53 21° E
DMSP B5D2-2 4.0 18:50:35 10° NNE 18:55:54 73° ESE 19:01:10 10° S
H-2A R/B 4.2 18:51:37 10° SSW 18:55:57 28° W 19:00:26 10° NW
SJ 16-02 1.4 18:51:55 10° S 18:56:13 53° ESE 19:00:33 10° NNE
Cosmos 2297 Rocket 4.1 18:53:04 10° N 18:56:20 15° NNE 18:59:02 11° ENE
USA 186 2.2 18:55:20 26° ESE 18:56:31 37° ENE 18:59:29 10° N
Okean O Rocket 4.1 18:52:59 10° SSW 18:56:33 24° W 19:00:08 10° NW
Cosmos 1538 Rocket 4.0 18:52:40 10° NNW 18:58:03 73° ENE 19:03:23 10° SSE
Cosmos 158 Rocket 3.9 18:53:36 10° NNW 18:58:36 61° ENE 19:02:32 16° SE
Cosmos 1943 Rocket 2.8 18:54:02 10° SW 18:59:32 59° WNW 19:05:08 10° NNE
Meteor 1-12 Rocket 4.3 18:53:40 10° S 18:59:37 68° E 19:05:32 10° NNE
NOSS 3-2 (A) 3.9 18:56:52 10° S 19:01:43 32° ESE 19:07:10 10° NE
Cosmos 1238 Rocket 4.1 18:57:46 10° SSW 19:03:54 70° W 19:09:12 10° N
ISS -3.2 19:02:32 10° WNW 19:05:50 50° N 19:07:19 28° ENE
CZ-2C R/B 3.8 19:01:17 10° N 19:06:36 49° WNW 19:11:57 10° SW
Cosmos 1441 Rocket 3.7 19:04:42 10° N 19:08:15 37° ENE 19:09:11 32° ESE
USA 307 3.3 19:05:51 10° WNW 19:10:02 53° NNE 19:12:02 28° E
Cosmos 1238 4.4 19:07:06 10° N 19:10:07 46° ENE 19:10:36 42° ESE
Geosat 3.9 19:07:46 10° NNE 19:12:50 79° ESE 19:17:51 10° SSW
PSLV R/B 3.9 19:08:50 10° NNE 19:12:57 57° E 19:16:59 10° S
Meteor 2-20 4.4 19:07:23 10° N 19:13:26 60° ENE 19:18:53 13° SSE
Cosmos 962 Rocket 4.4 19:09:20 10° S 19:15:28 70° E 19:21:35 10° NNE
Meteor 1-24 Rocket 3.9 19:11:59 10° N 19:17:10 47° ENE 19:19:55 26° SE
Cosmos 2227 Rocket 4.0 19:15:39 10° N 19:19:10 16° NE 19:21:08 14° ENE
Cosmos 2369 Rocket 2.3 19:13:48 10° SSW 19:19:28 81° WNW 19:25:09 10° NNE
Cosmos 1833 4.2 19:14:06 10° NNW 19:19:46 88° WSW 19:24:01 18° SSE
USA 276 2.1 19:17:08 10° WNW 19:20:17 73° N 19:20:47 56° ENE
Cosmos 1674 4.2 19:17:55 10° NNW 19:21:21 36° W 19:24:46 10° SSW
Okean 2 Rocket 3.4 19:19:52 30° SE 19:21:21 40° E 19:25:29 10° NNE
USA 306 3.1 19:18:14 10° WNW 19:22:26 61° NNE 19:23:53 37° E
H-2A R/B 3.1 19:20:27 10° N 19:24:27 45° WNW 19:28:23 10° SW
Lacrosse 5 rocket 3.8 19:21:31 10° WNW 19:24:51 20° SW 19:28:07 10° S
Cosmos 1777 Rocket 4.3 19:21:43 10° SSW 19:26:56 68° WNW 19:32:10 10° NNE
Cosmos 1626 3.2 19:25:44 10° NNW 19:29:18 45° W 19:32:49 10° SSW
USA 308 3.1 19:25:18 10° WNW 19:29:32 62° NNE 19:30:44 43° E
Cosmos 1782 Rocket 4.4 19:27:55 10° SSW 19:32:14 53° WNW 19:36:35 10° N
ATLAS CENTAUR R/B 4.4 19:30:58 10° WNW 19:33:38 15° WSW 19:36:21 10° SW
APEX 3.6 19:29:39 10° NNW 19:34:26 71° WSW 19:35:59 36° S
BREEZE-M R/B 2.4 19:31:35 10° W 19:35:11 88° NNE 19:36:12 46° E
Sich 1 Rocket 3.5 19:30:42 10° S 19:35:14 78° E 19:39:46 10° NNE
Cosmos 1656 Rocket 3.6 19:29:53 10° SSW 19:35:28 85° WNW 19:41:00 10° NNE
Cosmos 1726 4.1 19:38:29 17° NNE 19:38:29 17° NNE 19:39:27 10° NNE
Cosmos 1805 4.0 19:33:25 10° SSW 19:37:12 52° WNW 19:41:01 10° N
CZ-4B R/B 2.6 19:35:11 10° N 19:38:07 40° WNW 19:41:04 10° SW
Cosmos 1025 Rocket 3.2 19:33:53 10° NNW 19:38:13 72° W 19:41:03 21° S
SeaSat 1 2.3 19:36:15 34° SE 19:38:26 86° ENE 19:43:24 10° NNW
SL-14 R/B 3.6 19:34:35 10° NNW 19:38:32 65° W 19:40:47 24° S
Cosmos 1536 Rocket 3.6 19:35:08 10° N 19:39:30 57° ENE 19:40:02 53° ESE
Cosmos 923 Rocket 3.9 19:34:19 10° NNW 19:39:32 73° ENE 19:41:23 40° SE
Cosmos 1315 Rocket 3.2 19:36:10 10° SSW 19:40:08 64° WNW 19:44:11 10° N
ERBS 4.2 19:38:35 10° NW 19:41:10 21° N 19:41:29 20° NNE
Meteor 2-20 Rocket 4.3 19:35:26 10° N 19:41:34 71° ENE 19:44:56 28° SSE
SJ-6B 3.1 19:41:52 30° S 19:43:49 72° W 19:47:54 10° NNW
SL-8 Rocket 3.9 19:40:05 10° S 19:46:21 82° E 19:52:43 10° N
CZ-4 R/B 4.3 19:46:38 10° WSW 19:48:45 14° W 19:50:53 10° NW
IGS 5A 3.8 19:50:44 50° NE 19:50:44 50° NE 19:54:21 10° N
Cosmos 1680 Rocket 3.4 19:46:53 10° NNW 19:52:10 71° ENE 19:53:19 53° SE
Cosmos 1470 4.5 19:54:32 23° NNE 19:54:32 23° NNE 19:56:09 10° NNE
MOS 1 4.2 19:50:50 38° SSE 19:53:10 79° ENE 19:58:52 10° NNW
Meteor 2-10 4.0 19:47:39 10° S 19:53:16 77° E 19:58:45 10° NNE
Cosmos 2151 Rocket 3.4 19:55:30 70° SE 19:55:49 74° E 20:00:19 10° NNE
EO 1 Delta rocket 4.0 19:54:11 36° S 19:56:19 88° W 20:02:10 10° N
Cosmos 2219 4.5 19:51:42 10° N 19:56:20 25° NE 19:56:51 25° NE
SL-27 R/B 3.2 19:55:59 10° NNW 19:58:44 49° WNW 19:58:44 49° WNW
IRS-1A Rocket 4.3 19:59:35 40° SSE 20:01:53 87° ENE 20:07:51 10° NNW
Cosmos 1300 Rocket 4.3 19:59:41 10° SSW 20:03:58 52° WNW 20:08:15 10° N
Cosmos 1727 Rocket 3.9 19:58:29 10° N 20:04:50 74° E 20:06:40 48° SSE
SPOT 1/Viking Rocket 4.0 20:06:35 45° NE 20:06:35 45° NE 20:11:08 10° N
SL-08 R/B 4.4 20:05:56 54° ESE 20:06:24 56° E 20:12:24 10° NNE
Cosmos 2112 Rocket 3.9 20:06:00 10° NNW 20:11:18 86° ENE 20:11:50 73° SE
Meteor 1-22 Rocket 4.3 20:06:08 10° SSW 20:11:44 81° WNW 20:17:39 10° N
USA 215 3.7 20:11:36 36° S 20:14:01 53° SW 20:20:26 10° WNW
Cosmos 1900 4.2 20:09:07 10° NW 20:14:02 78° WSW 20:14:14 76° SSW
Cosmos 990 Rocket 3.8 20:11:09 10° SSW 20:16:18 88° ESE 20:21:32 10° NNE
OBJECT-B 3.3 20:16:14 16° WSW 20:17:02 18° W 20:19:19 10° NW
Meteor 2-5 Rocket 4.5 20:12:52 10° NNW 20:18:13 49° W 20:21:30 23° SSW
CENTAUR R/B 2.4 20:13:14 10° SSW 20:19:07 77° SE 20:26:15 10° NE
Resurs 01 Rocket 1.9 20:20:48 61° N 20:20:48 61° N 20:24:27 10° NNW
Helios 1A Rocket 3.7 20:21:12 47° WSW 20:21:16 47° W 20:25:13 10° NNW
CZ-3 Stage 3 4.4 20:06:00 10° WSW 20:22:19 26° SSW 20:24:26 24° S
Resurs 1-3 4.2 20:21:57 49° WSW 20:22:22 51° W 20:26:40 10° NNW
Ariane Rocket 3.1 20:22:33 61° SSW 20:23:14 69° WSW 20:28:20 10° NNW
SPOT 5 4.3 20:32:01 30° NNE 20:32:01 30° NNE 20:35:19 10° N
Cosmos 2366 rocket 4.4 20:25:01 10° SSW 20:31:03 59° WNW 20:37:09 10° N
Terra 3.8 20:34:21 19° NNE 20:34:21 19° NNE 20:36:09 10° N
USA 305 4.1 20:30:05 10° WNW 20:32:54 38° W 20:32:54 38° W
SJ 16-02 3.9 20:31:43 10° WSW 20:35:07 21° NW 20:38:31 10° N
Iridium 4 Rocket 4.5 20:34:33 10° N 20:36:53 31° N 20:36:53 31° N
Cosmos 2297 Rocket 2.7 20:36:06 10° NNW 20:40:51 51° NNE 20:40:51 51° NNE
ISS -0.8 20:39:26 10° WNW 20:40:17 17° WNW 20:40:17 17° WNW
Cosmos 1867 3.9 20:38:04 10° NW 20:42:49 62° N 20:42:49 62° N
USA 238 DEB 3.5 20:37:10 10° SW 20:43:43 87° NW 20:50:41 10° NE
USA 238 3.5 20:37:17 10° SW 20:43:49 87° NW 20:50:46 10° NE
Cosmos 1898 Rocket 4.3 20:50:27 44° N 20:50:27 44° N 20:54:06 10° NNE
NOSS 3-2 (A) 3.8 20:46:29 10° WSW 20:52:07 60° NW 20:58:44 10° NE
Cosmos 2227 Rocket 3.0 20:58:48 10° NNW 21:02:56 45° N 21:02:56 45° N
Cosmos 2263 Rocket 4.1 21:12:16 10° N 21:15:21 20° NNE 21:15:21 20° NNE
USA 281 3.3 21:10:01 10° NNE 21:15:50 69° N 21:15:50 69° N
Terra 4.4 22:13:15 17° NNW 22:13:15 17° NNW 22:14:24 10° NNW
CENTAUR R/B 3.9 22:04:37 10° W 22:10:31 37° NNW 22:17:29 10° NE
Cosmos 2297 Rocket 4.4 22:20:43 10° NW 22:22:39 19° WNW 22:22:39 19° WNW
ATLAS 3B R/B 4.5 23:21:01 23° NE 23:21:01 23° NE 23:23:28 10° NE
Cosmos 2344 4.4 23:30:38 10° NW 23:37:18 59° NW 23:37:18 59° NW
